Bellaire, MI

11:26 PM EDT on April 21, 2018 (GMT -0400)
Antrim County

Weather History for KACB - October, 2013

Change the Weather History Date:

Sunday, October 6, 2013

  Actual Average (KCVX) Record (KCVX)
Temperature  
Mean Temperature 60 °F -  
Max Temperature 69 °F 63 °F 77 °F (2007)
Min Temperature 50 °F 46 °F 33 °F (2003)
Degree Days  
Heating Degree Days 6    
Growing Degree Days 10 (Base 50)    
Moisture  
Dew Point 58 °F    
Average Humidity 95    
Maximum Humidity 98    
Minimum Humidity 84    
Precipitation  
Precipitation 0.00 in - - ()
Sea Level Pressure  
Sea Level Pressure 29.69 in    
Wind  
Wind Speed 3 mph (SSW)    
Max Wind Speed 10 mph    
Max Gust Speed 17 mph    
Visibility 8 miles    
Events Rain    
Averages and records for this station are not official NWS values.
T = Trace of Precipitation, MM = Missing Value Source: NWS Daily Summary

Daily Weather History Graph

Daily Weather History Graph

Search for Another Location

Airport or City:

Astronomy

Oct. 06, 2013 Rise Set
Actual Time 7:45 AM EDT 7:11 PM EDT
Civil Twilight 7:16 AM EDT 7:40 PM EDT
Nautical Twilight 6:42 AM EDT 8:14 PM EDT
Astronomical Twilight 6:07 AM EDT 8:48 PM EDT
Moon 9:34 AM EDT (10/6) 8:03 PM EDT (10/6)
Length of Visible Light 12h 24m
Length of Day
11h 26m
Waxing Crescent, 3% of the Moon is Illuminated
Oct 6
Waxing Crescent
Oct 11
First Quarter
Oct 18
Full
Oct 26
Last Quarter
Nov 3
New

Hourly Weather History & Observations

Time (EDT) Temp. Dew Point Humidity Pressure Visibility Wind Dir Wind Speed Gust Speed Precip Events Conditions
12:15 AM 57.4 °F 56.3 °F 96% 29.85 in 7.0 mi NNE 5.8 mph - N/A Rain Rain
12:36 AM 57.9 °F 56.5 °F 95% 29.85 in 10.0 mi NNE 4.6 mph - N/A Rain Rain
12:55 AM 58.1 °F 56.7 °F 95% 29.82 in 7.0 mi NNE 5.8 mph - N/A Rain Rain
1:15 AM 58.3 °F 57.2 °F 96% 29.81 in 5.0 mi NE 6.9 mph - N/A Rain Heavy Rain
1:35 AM 58.5 °F 57.2 °F 96% 29.80 in 10.0 mi ENE 8.1 mph - N/A Rain Light Rain
1:55 AM 59.2 °F 57.7 °F 95% 29.80 in 10.0 mi NE 5.8 mph - N/A   Overcast
2:15 AM 59.4 °F 57.7 °F 94% 29.79 in 10.0 mi ENE 4.6 mph - N/A   Overcast
2:35 AM 59.4 °F 57.6 °F 94% 29.78 in 10.0 mi NE 4.6 mph - N/A   Mostly Cloudy
2:55 AM 59.7 °F 57.9 °F 94% 29.77 in 10.0 mi NE 4.6 mph - N/A   Scattered Clouds
3:16 AM 59.5 °F 57.7 °F 94% 29.76 in 10.0 mi Calm Calm - N/A   Clear
3:35 AM 59.9 °F 58.1 °F 94% 29.75 in 10.0 mi Calm Calm - N/A   Mostly Cloudy
3:55 AM 59.4 °F 57.9 °F 95% 29.74 in 10.0 mi Calm Calm - N/A   Scattered Clouds
4:16 AM 60.1 °F 58.6 °F 95% 29.73 in 10.0 mi Calm Calm - N/A   Mostly Cloudy
4:35 AM 60.1 °F 58.6 °F 95% 29.72 in 10.0 mi Calm Calm - N/A   Overcast
4:55 AM 60.8 °F 59.7 °F 96% 29.73 in 10.0 mi Calm Calm - N/A   Overcast
5:16 AM 62.1 °F 60.8 °F 96% 29.72 in 10.0 mi Calm Calm - N/A   Overcast
5:35 AM 63.0 °F 61.0 °F 93% 29.71 in 10.0 mi ESE 4.6 mph - N/A   Overcast
5:55 AM 62.8 °F 60.8 °F 93% 29.71 in 10.0 mi Calm Calm - N/A   Overcast
6:16 AM 62.4 °F 60.6 °F 94% 29.71 in 10.0 mi Calm Calm - N/A   Overcast
6:35 AM 61.7 °F 60.4 °F 96% 29.70 in 10.0 mi Calm Calm - N/A   Overcast
6:55 AM 61.5 °F 60.6 °F 97% 29.70 in 10.0 mi Calm Calm - N/A   Overcast
7:16 AM 61.0 °F 60.1 °F 97% 29.70 in 7.0 mi Calm Calm - N/A   Overcast
7:35 AM 60.8 °F 59.9 °F 97% 29.70 in 5.0 mi Calm Calm - N/A   Overcast
7:55 AM 61.0 °F 60.3 °F 97% 29.70 in 7.0 mi Calm Calm - N/A   Overcast
8:16 AM 61.3 °F 60.6 °F 97% 29.69 in 7.0 mi Calm Calm - N/A   Overcast
8:35 AM 61.7 °F 60.8 °F 97% 29.69 in 5.0 mi Calm Calm - N/A   Overcast
8:55 AM 63.1 °F 62.4 °F 97% 29.69 in 7.0 mi Calm Calm - N/A   Overcast
9:15 AM 64.2 °F 63.5 °F 98% 29.68 in 7.0 mi Calm Calm - N/A   Mostly Cloudy
9:35 AM 64.4 °F 63.7 °F 98% 29.67 in 7.0 mi Calm Calm - N/A   Scattered Clouds
9:56 AM 65.7 °F 64.8 °F 97% 29.66 in 10.0 mi Calm Calm - N/A   Mostly Cloudy
10:15 AM 66.2 °F 64.9 °F 96% 29.65 in 10.0 mi South 3.5 mph - N/A   Mostly Cloudy
10:35 AM 67.3 °F 64.9 °F 92% 29.66 in 10.0 mi SSW 4.6 mph - N/A   Overcast
10:56 AM 68.4 °F 65.3 °F 90% 29.65 in 10.0 mi South 6.9 mph - N/A   Overcast
11:15 AM 68.9 °F 65.1 °F 88% 29.65 in 10.0 mi South 10.4 mph - N/A   Overcast
11:35 AM 69.6 °F 64.8 °F 84% 29.64 in 10.0 mi South 6.9 mph - N/A   Overcast
11:56 AM 69.6 °F 64.6 °F 84% 29.64 in 7.0 mi SW 5.8 mph 9.2 mph N/A   Overcast
12:15 PM 64.8 °F 62.6 °F 93% 29.66 in 10.0 mi West 6.9 mph 17.3 mph N/A   Overcast
12:35 PM 63.0 °F 61.2 °F 94% 29.67 in 10.0 mi WSW 3.5 mph - N/A   Overcast
12:56 PM 63.0 °F 61.2 °F 94% 29.67 in 10.0 mi SW 5.8 mph - N/A   Overcast
1:15 PM 63.0 °F 60.8 °F 93% 29.67 in 10.0 mi SW 4.6 mph - N/A   Overcast
1:36 PM 62.6 °F 60.3 °F 92% 29.66 in 10.0 mi West 6.9 mph - N/A   Overcast
1:56 PM 61.7 °F 59.4 °F 92% 29.67 in 7.0 mi WSW 4.6 mph - N/A   Overcast
2:15 PM 61.2 °F 59.0 °F 93% 29.66 in 4.0 mi SW 4.6 mph - N/A Rain Rain
2:36 PM 60.8 °F 59.0 °F 94% 29.66 in 4.0 mi WSW 3.5 mph - N/A Rain Light Rain
2:56 PM 60.1 °F 58.5 °F 94% 29.66 in 5.0 mi SW 5.8 mph - N/A Rain Light Rain
3:15 PM 59.5 °F 58.1 °F 95% 29.66 in 7.0 mi Calm Calm - N/A Rain Rain
3:36 PM 59.9 °F 58.5 °F 95% 29.65 in 10.0 mi South 3.5 mph - N/A Rain Light Rain
3:56 PM 59.5 °F 58.1 °F 95% 29.65 in 10.0 mi South 3.5 mph - N/A Rain Rain
4:15 PM 59.4 °F 57.6 °F 94% 29.65 in 10.0 mi SW 3.5 mph - N/A Rain Rain
4:36 PM 59.4 °F 57.7 °F 94% 29.63 in 7.0 mi Calm Calm - N/A Rain Light Rain
4:56 PM 59.0 °F 57.4 °F 94% 29.64 in 10.0 mi SW 3.5 mph - N/A Rain Light Rain
5:15 PM 58.3 °F 56.5 °F 94% 29.63 in 4.0 mi SW 5.8 mph - N/A Rain Rain
5:36 PM 58.1 °F 56.5 °F 94% 29.64 in 10.0 mi SSW 4.6 mph - N/A   Overcast
5:56 PM 57.6 °F 56.3 °F 96% 29.65 in 10.0 mi SSW 3.5 mph - N/A   Overcast
6:15 PM 57.4 °F 56.1 °F 96% 29.65 in 10.0 mi Calm Calm - N/A   Overcast
6:36 PM 57.2 °F 55.2 °F 93% 29.65 in 10.0 mi Calm Calm - N/A   Mostly Cloudy
6:55 PM 56.8 °F 54.5 °F 92% 29.65 in 10.0 mi Calm Calm - N/A   Scattered Clouds
7:15 PM 56.5 °F 54.1 °F 92% 29.65 in 10.0 mi Calm Calm - N/A   Scattered Clouds
7:36 PM 55.8 °F 53.8 °F 93% 29.65 in 10.0 mi Calm Calm - N/A   Scattered Clouds
7:55 PM 54.7 °F 53.2 °F 95% 29.65 in 10.0 mi Calm Calm - N/A   Clear
8:16 PM 53.2 °F 52.0 °F 95% 29.65 in 10.0 mi Calm Calm - N/A   Clear
8:36 PM 52.0 °F 50.9 °F 96% 29.65 in 3.0 mi Calm Calm - N/A   Clear
8:55 PM 51.4 °F 50.5 °F 97% 29.66 in 1.5 mi Calm Calm - N/A   Mist
9:16 PM 51.1 °F 50.4 °F 97% 29.65 in 2.0 mi Calm Calm - N/A   Clear
9:36 PM 50.9 °F 50.2 °F 97% 29.65 in 3.0 mi Calm Calm - N/A   Clear
9:55 PM 50.9 °F 50.2 °F 97% 29.65 in 5.0 mi Calm Calm - N/A   Clear
10:16 PM 51.6 °F 51.1 °F 98% 29.65 in 10.0 mi Calm Calm - N/A   Clear
10:36 PM 52.3 °F 51.8 °F 98% 29.65 in 10.0 mi SSW 3.5 mph - N/A   Clear
10:55 PM 52.0 °F 51.1 °F 97% 29.64 in 10.0 mi SSW 3.5 mph - N/A   Clear
11:16 PM 51.8 °F 50.0 °F 94% 29.64 in 10.0 mi Calm Calm - N/A   Clear
11:36 PM 50.2 °F 48.9 °F 95% 29.64 in 5.0 mi Calm Calm - N/A   Scattered Clouds
11:55 PM 50.5 °F 49.6 °F 97% 29.64 in 10.0 mi SSW 3.5 mph - N/A   Mostly Cloudy